Location: Olsztyn
(53.7767°N, 20.4765°E)
Time: 20:40:20
(UTC+02:00)

Envisat - Pass Details

Date: 28 February 2024
Orbit: 762 x 764 km, 98.3° (Epoch: 20 April)

Event Time Altitude Azimuth Distance (km) Brightness Sun altitude
Rises 02:33:58 0° 19° (NNE) 3,246 7.0 -33.9°
Reaches altitude 10° 02:36:26 10° 28° (NNE) 2,314 6.2 -33.6°
Enters shadow 02:40:41 38° 82° (E) 1,166 4.2 -33.1°
